Simultaneous Nadir Overpasses (SNOs) Predictions

Prediction of SNOs between AQUA and GOES-15 Satellite Orbit:

Table of predicted SNOs for the next 14.0 days since TLE Epoch: 7/3/2021
Index Date Time (AQUA) AQUA Lat,Lon GOES-15 Lat,Lon Distance(km) Time Diff (sec)
1 07/03/2021 22:10:03 -0.08,-128.64 0.02,-128.12 59.47 80
2 07/05/2021 21:57:52 0.51,-125.68 0.02,-128.07 270.47 80
3 07/06/2021 10:19:09 0.53,-130.85 -0.04,-128.13 309.11 80
4 07/08/2021 10:06:58 -0.06,-127.89 -0.04,-128.07 20.01 80
5 07/10/2021 09:54:48 -0.72,-124.95 -0.04,-128.01 348.50 80
6 07/10/2021 22:16:12 -0.40,-130.14 0.05,-127.90 253.32 80
7 07/12/2021 22:04:01 0.20,-127.18 0.05,-127.83 74.77 80
8 07/14/2021 21:51:50 0.81,-124.22 0.04,-127.76 402.64 80
9 07/15/2021 10:13:06 0.29,-129.38 -0.06,-127.82 177.08 80
